Regional Weather Roundup
Issued by NWS Boston, MA

Current Version | Previous Version | Text Only | Print | Product List | Glossary Off
Versions: 1 2 3 4 5 6 7 8 9 10 11 12 13 14 15 16 17 18 19 20 21 22 23 24 25 26 27 28 29 30 31 32 33 34 35 36 37 38 39 40 41 42 43 44 45 46 47 48 49 50
000 ASUS41 KBOX 190910 RWRBOX REGIONAL WEATHER ROUNDUP NATIONAL WEATHER SERVICE TAUNTON MA 500 AM EDT THU OCT 19 2017 NOTE: "FAIR" INDICATES FEW OR NO CLOUDS BELOW 12,000 FEET WITH NO SIGNIFICANT WEATHER AND/OR OBSTRUCTIONS TO VISIBILITY. MAZALL-191000- EASTERN MASSACHUSETTS CITY SKY/WX TMP DP RH WIND PRES REMARKS BOSTON CLEAR 52 48 86 SW7 30.24R BEVERLY CLEAR 44 43 96 CALM 30.22S LAWRENCE CLEAR 47 43 86 SW3 30.25R BEDFORD CLEAR 40 37 89 CALM 30.23R BLUE HILL N/A 53 50 89 SW12 30.23S NORWOOD PTCLDY 37 36 96 CALM 30.24S FOG MARSHFIELD CLEAR 54 54 100 SW5 30.24S PLYMOUTH FOG 46 43 89 CALM 30.26R VSB 1/2 TAUNTON CLEAR 38 37 97 CALM 30.25R NEW BEDFORD FOG 43 42 97 CALM 30.25R VSB 1/4 $$ MAZALL-191000- CAPE COD AND THE ISLANDS CITY SKY/WX TMP DP RH WIND PRES REMARKS FALMOUTH CLEAR 45 45 100 CALM 30.27R HYANNIS FOG 47 46 97 CALM 30.25S VSB 1/4 CHATHAM CLEAR 58 58 100 SW5 30.27S PROVINCETOWN CLEAR 56 56 100 S8 30.26R NANTUCKET CLEAR 57 57 100 SW6 30.27S MARTHAS VNYRD FOG 42 42 100 SW3 30.27R VSB 1/4 $$ MAZALL-191000- CENTRAL AND WESTERN MASSACHUSETTS CITY SKY/WX TMP DP RH WIND PRES REMARKS WORCESTER CLEAR 49 44 83 W6 30.23S FITCHBURG CLEAR 41 39 93 CALM 30.24R ORANGE FOG 36 36 100 CALM 30.24S VSB 1/2 SPRINGFIELD CLEAR 38 37 98 CALM 30.23R WESTFIELD CLEAR 39 38 96 CALM 30.23S NORTH ADAMS CLEAR 38 37 97 VRB3 30.22F PITTSFIELD MOCLDY 38 37 97 CALM 30.22S FOG $$ RIZALL-191000- RHODE ISLAND CITY SKY/WX TMP DP RH WIND PRES REMARKS PROVIDENCE CLEAR 48 47 96 CALM 30.26S NEWPORT FOG 56 56 100 CALM 30.25S VSB 3/4 BLOCK ISLAND CLEAR 57 54 89 SW9 30.27R SMITHFIELD PTCLDY 47 47 100 CALM 30.25S FOG WESTERLY CLEAR 44 42 93 CALM 30.26S $$ CTZALL-191000- CONNECTICUT CITY SKY/WX TMP DP RH WIND PRES REMARKS BRADLEY INTL PTCLDY 43 42 97 CALM 30.24S HARTFORD FOG 46 45 96 CALM 30.24S VSB 1/2 BRIDGEPORT CLEAR 51 48 89 CALM 30.25S DANBURY CLEAR 42 40 92 SW3 30.26S GROTON MOCLDY 46 45 96 CALM 30.25S FOG NEW HAVEN CLEAR 45 42 89 CALM 30.25S CHESTER FAIR 54 52 94 CALM 30.25S MERIDEN PTCLDY 41 40 96 CALM 30.25S WILLIMANTIC PTCLDY 40 40 100 CALM 30.26S FOG OXFORD CLEAR 46 45 96 CALM 30.25S $$ MEZ002-015-021-024-NHZ003-005-008-011-012-014-VTZ005-008-191000- NORTHERN NEW ENGLAND CITY SKY/WX TMP DP RH WIND PRES REMARKS PORTLAND ME CLEAR 42 39 89 CALM 30.21S BANGOR ME CLEAR 42 39 89 S5 30.19F CONCORD NH CLEAR 35 32 88 CALM 30.23S MANCHESTER NH CLEAR 43 40 89 CALM 30.21S NASHUA NH CLEAR 40 39 97 CALM 30.23F PORTSMOUTH NH PTCLDY 43 42 98 CALM 30.21R JAFFREY NH CLEAR 38 38 100 CALM 30.23F KEENE NH FOG 36 36 100 CALM 30.24S VSB 3/4 BURLINGTON VT CLEAR 58 46 64 S12G18 30.12S MT. WASHINGTON CLEAR 39 27 60 SW36 N/A WCI 26 $$ NYZ052-076-191000- EASTERN NEW YORK CITY SKY/WX TMP DP RH WIND PRES REMARKS ALBANY PTCLDY 51 46 83 S3 30.21S NEW YORK CITY PTCLDY 59 46 62 SW5 30.25S $$ ANZALL-191000- MARINE OBSERVATIONS STATION/POSITION TIME TEMP WIND PRES VSBY WAVE AIR SEA DIR/SP/G HT/PER (UTC) (F) (DEG/KT/KT) (MB) (MI) (FT/S) BOSTON BUOY 0750 57 58 200/ 6/ 8 1023.2 1 BUZZARDS BAY 0800 62 220/ 12/ 13 1024.7F NANTUCKET SOUND 0850 61 61 230/ 10/ 12 1024.7R 1 MASS BAY-STELLWA 0804 59 60 230/ 12/ 12 1023.0F 1/ 2 ISLE OF SHOALS 0800 56 230/ 10/ 11 1023.0S S OF BLOCK IS NOT AVBL $$ ......................KEY......................... SKY/WX - SKY CONDITION/PRESENT WEATHER TMP - TEMPERATURE IN FAHRENHEIT DWPT - DEWPOINT IN FAHRENHEIT RH - RELATIVE HUMIDITY IN PERCENT WIND - DIRECTION AND SPEED IN MPH PRES - MEAN SEA LEVEL PRESSURE IN INCHES OF HG WCI - WIND CHILL INDEX VSB - VISIBILITY IN MILES HX - HEAT INDEX TC - TEMPERATURE IN CELSIUS VRB - VARIABLE WIND DIRECTION N/A - NOT AVAILABLE

USA.gov is the U.S. government's official web portal to all federal, state and local government web resources and services.